Content
SEND FEEDBACK

Daily
Averages
Monthly
Summary
United States of America

UPI, GUAM


Home > North America > United States > Guam
Elevation: 53 feet     Latitude: 13 34N     Longitude: 144 55E

WEATHER
 
SELECT A DAY
Number of Records: 209,165;   Date Range: 1/1/95 - 8/30/14
 
SHARE

PRINT THIS DATA

[ ← Previous Day ]
WEATHER ALMANAC - MARCH 11, 2013
[ Next Day → ]
[ °C ]   °F
Weather ElementAverageHighLow
Temperature82.6 °F89.1 °F (10:54 am)77 °F (5:54 am)
Dewpoint72.8 °F75 °F (11:54 pm)70 °F (3:54 pm)
Humidity72.9 %88 % (11:54 pm)55 % (10:54 am)
Barometer29.86 in29.91 in (7:54 am)29.80 in (3:54 pm)
Wind Speed9.6 mph15 mph (2:54 pm)
Weather ElementAverage
Visibility9.8 mi
Wind DirectionNE (42.6 °)

Weather ElementTotal
Precipitation0.03 in
Cooling Degree Days18.1 (Base 65)
Growing Degree Days33.1 (Base 50)
Averaged from 27 records on March 11, 2013
WEATHER CONDITIONS BREAKOUT
WIND DIRECTION BREAKOUT
WEATHER BY HOUR - MARCH 11, 2013
[ °C ]   °F
Local TimeTemperatureDewpointHumidityBarometerVisibilityWind DirectionWind SpeedGust SpeedPrecipitationEventsConditions
1:54 AM80.1 °F72.0 °F76 %29.88 in10.0 miNE (50°)5.8 mphScattered Clouds
2:54 AM79.0 °F73.0 °F82 %29.88 in10.0 miNE (50°)6.9 mphPartly Cloudy
3:54 AM79.0 °F73.0 °F82 %29.87 in10.0 miENE (60°)5.8 mphPartly Cloudy
4:54 AM79.0 °F73.0 °F82 %29.87 in10.0 miENE (60°)5.8 mphPartly Cloudy
5:54 AM77.0 °F71.1 °F82 %29.88 in10.0 miESE (110°)5.8 mph0.00 inRainLight Rain
6:54 AM78.1 °F73.0 °F84 %29.90 in10.0 miNE (50°)8.1 mphOvercast
7:54 AM81.0 °F73.9 °F79 %29.91 in10.0 miNNE (30°)5.8 mphClear
8:54 AM84.0 °F73.0 °F69 %29.90 in10.0 miNE (40°)11.5 mphPartly Cloudy
9:54 AM88.0 °F72.0 °F59 %29.91 in10.0 miNE (50°)12.7 mphScattered Clouds
10:54 AM89.1 °F71.1 °F55 %29.90 in10.0 miNNE (30°)13.8 mphScattered Clouds
11:54 AM86.7 °F71.1 °F59 %29.88 in10.0 miNorth (10°)9.2 mphScattered Clouds
12:54 PM88.0 °F71.1 °F57 %29.86 in10.0 miNE (40°)12.7 mphMostly Cloudy
1:54 PM89.1 °F73.0 °F59 %29.83 in10.0 miNNE (20°)9.2 mphMostly Cloudy
2:54 PM86.0 °F73.0 °F65 %29.82 in10.0 miNNE (30°)15.0 mphMostly Cloudy
3:54 PM87.1 °F70.0 °F57 %29.80 in10.0 miNNE (20°)11.5 mphScattered Clouds
4:54 PM84.9 °F72.0 °F65 %29.81 in10.0 miNE (40°)11.5 mphPartly Cloudy
5:43 PM84.2 °F73.4 °F70 %29.85 in10.0 miNNE (30°)10.4 mphOvercast
5:52 PM82.4 °F73.4 °F74 %29.85 in10.0 miNNE (20°)11.5 mphOvercast
5:54 PM82.9 °F73.0 °F72 %29.83 in10.0 miNNE (20°)12.7 mphOvercast
6:17 PM82.4 °F73.4 °F74 %29.85 in10.0 miNE (40°)9.2 mphOvercast
6:26 PM82.4 °F73.4 °F74 %29.85 in10.0 miNE (40°)8.1 mphMostly Cloudy
6:54 PM81.0 °F73.9 °F79 %29.84 in10.0 miNE (50°)6.9 mphScattered Clouds
7:54 PM80.1 °F73.9 °F81 %29.85 in10.0 miNE (40°)9.2 mph0.00 inScattered Clouds
8:54 PM80.1 °F73.9 °F81 %29.86 in10.0 miENE (60°)8.1 mphPartly Cloudy
9:54 PM80.1 °F73.9 °F81 %29.88 in10.0 miNE (50°)8.1 mphMostly Cloudy
10:54 PM80.1 °F73.9 °F81 %29.88 in5.0 miNE (50°)8.1 mph0.00 inRainRain
11:54 PM79.0 °F75.0 °F88 %29.88 in10.0 miENE (60°)15.0 mph0.03 inOvercast
Hourly data recorded from PGUM, located miles away from Upi, Guam







STORIES FROM OUR PARTNERS